TimeAEST,TemperatureF,Dew PointF,Humidity,Sea Level PressureIn,VisibilityMPH,Wind Direction,Wind SpeedMPH,Gust SpeedMPH,PrecipitationIn,Events,Conditions,WindDirDegrees,DateUTC
12:00 AM,57,54,88,30.03,4,SSW,11.5,,,,Overcast,200,2013-06-30 14:00:00
12:00 AM,57.2,53.6,88,30.01,3.7,SSW,11.5,-,N/A,,Overcast,200,2013-06-30 14:00:00
12:10 AM,57.2,53.6,88,30.01,5.6,SSW,9.2,-,N/A,,Overcast,200,2013-06-30 14:10:00
12:24 AM,57.2,53.6,88,30.01,3.7,SSW,10.4,-,N/A,,Overcast,210,2013-06-30 14:24:00
12:30 AM,57.2,55.4,94,30.01,3.7,SSW,10.4,-,N/A,,Overcast,210,2013-06-30 14:30:00
12:41 AM,57.2,53.6,88,29.98,6.2,SSW,12.7,-,N/A,,Overcast,210,2013-06-30 14:41:00
1:00 AM,57.2,53.6,88,29.98,6.2,SSW,10.4,-,N/A,,Mostly Cloudy,210,2013-06-30 15:00:00
1:30 AM,57.2,53.6,88,29.98,6.2,SSW,11.5,-,N/A,,Mostly Cloudy,210,2013-06-30 15:30:00
2:00 AM,57.2,53.6,88,29.98,5.6,SSW,12.7,-,N/A,,Overcast,210,2013-06-30 16:00:00
2:27 AM,57.2,53.6,88,29.98,3.7,SSW,13.8,-,N/A,,Overcast,210,2013-06-30 16:27:00
2:30 AM,57.2,53.6,88,29.98,3.1,SSW,13.8,-,N/A,,Overcast,210,2013-06-30 16:30:00
3:00 AM,56,53,88,29.96,6,SW,12.7,,,,Overcast,220,2013-06-30 17:00:00
3:00 AM,57.2,53.6,88,29.95,5.6,SSW,12.7,-,N/A,,Overcast,210,2013-06-30 17:00:00
3:03 AM,57.2,53.6,88,29.95,5.6,SSW,12.7,-,N/A,,Overcast,210,2013-06-30 17:03:00
3:30 AM,57.2,53.6,88,29.95,6.2,SSW,16.1,-,N/A,,Scattered Clouds,210,2013-06-30 17:30:00
4:00 AM,57.2,53.6,88,29.92,6.2,SSW,16.1,-,N/A,,Mostly Cloudy,210,2013-06-30 18:00:00
4:30 AM,57.2,53.6,88,29.92,6.2,SSW,17.3,-,N/A,,Mostly Cloudy,210,2013-06-30 18:30:00
4:46 AM,57.2,53.6,88,29.92,3.7,SSW,13.8,-,N/A,,Overcast,210,2013-06-30 18:46:00
5:00 AM,57.2,55.4,94,29.92,-9999.0,SSW,16.1,-,N/A,,Overcast,200,2013-06-30 19:00:00
5:17 AM,57.2,55.4,94,29.92,5.0,SSW,15.0,-,N/A,,Overcast,200,2013-06-30 19:17:00
5:30 AM,57.2,53.6,88,29.92,6.2,SSW,13.8,-,N/A,,Overcast,200,2013-06-30 19:30:00
5:56 AM,57.2,55.4,94,29.92,3.7,SSW,13.8,-,N/A,,Overcast,200,2013-06-30 19:56:00
6:00 AM,57,54,88,29.94,4,SSW,13.8,,,,Overcast,210,2013-06-30 20:00:00
6:00 AM,57.2,55.4,94,29.92,3.7,SSW,13.8,-,N/A,,Overcast,210,2013-06-30 20:00:00
6:30 AM,57.2,55.4,94,29.92,-9999.0,SSW,15.0,-,N/A,,Overcast,210,2013-06-30 20:30:00
7:00 AM,57.2,55.4,94,29.92,1.6,SSW,16.1,-,N/A,,Overcast,210,2013-06-30 21:00:00
7:30 AM,57.2,55.4,94,29.92,-9999.0,SSW,16.1,-,N/A,,Overcast,210,2013-06-30 21:30:00
7:54 AM,57.2,55.4,94,29.92,6.2,SSW,15.0,-,N/A,,Overcast,210,2013-06-30 21:54:00
8:04 AM,59.0,55.4,88,29.92,6.2,SSW,17.3,28.8,N/A,,Overcast,210,2013-06-30 22:04:00
8:25 AM,59.0,55.4,88,29.92,3.7,SSW,16.1,-,N/A,,Overcast,210,2013-06-30 22:25:00
8:30 AM,59.0,55.4,88,29.92,-9999.0,SSW,15.0,-,N/A,,Overcast,200,2013-06-30 22:30:00
9:00 AM,58,56,91,29.95,1,South,12.7,,,,Overcast,190,2013-06-30 23:00:00
9:00 AM,59.0,55.4,88,29.95,1.1,South,12.7,-,N/A,,Overcast,190,2013-06-30 23:00:00
9:04 AM,59.0,57.2,94,29.95,1.3,South,11.5,-,N/A,,Overcast,190,2013-06-30 23:04:00
9:23 AM,59.0,57.2,94,29.92,6.2,SSW,16.1,-,N/A,,Overcast,200,2013-06-30 23:23:00
9:26 AM,59.0,57.2,94,29.92,6.2,SSW,16.1,-,N/A,,Overcast,200,2013-06-30 23:26:00
9:30 AM,59.0,57.2,94,29.92,5.6,SSW,15.0,-,N/A,,Overcast,200,2013-06-30 23:30:00
9:48 AM,59.0,57.2,94,29.92,3.7,SSW,16.1,-,N/A,,Overcast,210,2013-06-30 23:48:00
10:00 AM,59.0,57.2,94,29.92,-9999.0,SSW,16.1,-,N/A,,Overcast,200,2013-07-01 00:00:00
10:30 AM,59.0,57.2,94,29.92,3.1,SSW,15.0,-,N/A,,Overcast,200,2013-07-01 00:30:00
10:34 AM,59.0,57.2,94,29.92,2.2,SSW,15.0,-,N/A,,Overcast,200,2013-07-01 00:34:00
10:46 AM,59.0,57.2,94,29.92,-9999.0,South,13.8,-,N/A,,Overcast,190,2013-07-01 00:46:00
11:00 AM,60.8,57.2,88,29.92,1.7,SSW,13.8,-,N/A,,Overcast,200,2013-07-01 01:00:00
11:18 AM,60.8,59.0,94,29.89,4.3,SSW,12.7,-,N/A,,Overcast,200,2013-07-01 01:18:00
11:19 AM,60.8,59.0,94,29.89,3.7,SSW,12.7,-,N/A,,Overcast,200,2013-07-01 01:19:00
11:30 AM,60.8,59.0,94,29.89,-9999.0,SSW,15.0,-,N/A,,Overcast,200,2013-07-01 01:30:00
11:49 AM,60.8,59.0,94,29.89,6.2,South,12.7,-,N/A,,Overcast,190,2013-07-01 01:49:00
12:00 PM,62,59,88,29.89,6,South,11.5,,,,Overcast,190,2013-07-01 02:00:00
12:00 PM,62.6,59.0,88,29.89,5.6,South,11.5,-,N/A,,Overcast,190,2013-07-01 02:00:00
12:30 PM,60.8,59.0,94,29.86,5.6,SSW,16.1,-,N/A,,Overcast,200,2013-07-01 02:30:00
1:00 PM,60.8,57.2,88,29.86,4.3,South,17.3,-,N/A,,Overcast,190,2013-07-01 03:00:00
1:08 PM,60.8,59.0,94,29.86,3.1,South,16.1,-,N/A,,Overcast,190,2013-07-01 03:08:00
1:30 PM,60.8,59.0,94,29.83,6.2,South,15.0,-,N/A,,Overcast,190,2013-07-01 03:30:00
1:35 PM,62.6,59.0,88,29.83,6.2,South,16.1,-,N/A,,Overcast,190,2013-07-01 03:35:00
1:44 PM,62.6,59.0,88,29.83,6.2,South,18.4,32.2,N/A,,Overcast,190,2013-07-01 03:44:00
1:59 PM,60.8,59.0,94,29.83,3.7,South,19.6,-,N/A,,Overcast,190,2013-07-01 03:59:00
2:00 PM,60.8,59.0,94,29.83,3.7,South,19.6,-,N/A,,Overcast,190,2013-07-01 04:00:00
2:29 PM,60.8,59.0,94,29.83,1.0,South,17.3,-,N/A,,Overcast,170,2013-07-01 04:29:00
2:30 PM,60.8,59.0,94,29.83,1.1,South,17.3,-,N/A,,Overcast,170,2013-07-01 04:30:00
2:32 PM,60.8,59.0,94,29.83,1.4,South,18.4,33.4,N/A,,Overcast,170,2013-07-01 04:32:00
3:00 PM,61,58,88,29.84,3,South,19.6,,,,Overcast,190,2013-07-01 05:00:00
3:00 PM,60.8,59.0,94,29.83,3.1,South,19.6,-,N/A,,Overcast,190,2013-07-01 05:00:00
3:02 PM,60.8,59.0,94,29.83,3.1,South,19.6,-,N/A,,Overcast,190,2013-07-01 05:02:00
3:13 PM,60.8,59.0,94,29.83,6.2,South,18.4,-,N/A,,Overcast,190,2013-07-01 05:13:00
3:30 PM,62.6,59.0,88,29.83,6.2,South,17.3,29.9,N/A,,Overcast,190,2013-07-01 05:30:00
3:36 PM,62.6,59.0,88,29.83,3.7,South,21.9,34.5,N/A,,Overcast,190,2013-07-01 05:36:00
4:00 PM,62.6,59.0,88,29.83,6.2,South,19.6,35.7,N/A,,Overcast,190,2013-07-01 06:00:00
4:01 PM,62.6,59.0,88,29.83,6.2,South,19.6,35.7,N/A,,Overcast,190,2013-07-01 06:01:00
4:14 PM,60.8,59.0,94,29.83,3.7,South,18.4,-,N/A,,Overcast,190,2013-07-01 06:14:00
4:20 PM,60.8,59.0,94,29.83,3.1,South,18.4,29.9,N/A,,Overcast,190,2013-07-01 06:20:00
4:30 PM,60.8,59.0,94,29.83,-9999.0,South,21.9,33.4,N/A,,Overcast,190,2013-07-01 06:30:00
5:00 PM,60.8,59.0,94,29.86,3.7,South,20.7,-,N/A,,Overcast,180,2013-07-01 07:00:00
5:16 PM,60.8,59.0,94,29.86,1.6,South,18.4,33.4,N/A,,Overcast,190,2013-07-01 07:16:00
5:30 PM,60.8,59.0,94,29.86,2.2,South,21.9,39.1,N/A,,Overcast,190,2013-07-01 07:30:00
5:52 PM,60.8,59.0,94,29.86,4.3,South,25.3,44.9,N/A,,Overcast,190,2013-07-01 07:52:00
6:00 PM,61,58,85,29.87,6,South,23.0,,,,Overcast,190,2013-07-01 08:00:00
6:00 PM,60.8,57.2,88,29.86,5.6,South,23.0,44.9,N/A,,Overcast,190,2013-07-01 08:00:00
6:25 PM,60.8,57.2,88,29.86,3.7,South,24.2,-,N/A,,Overcast,190,2013-07-01 08:25:00
6:26 PM,60.8,57.2,88,29.86,3.1,South,23.0,34.5,N/A,,Overcast,190,2013-07-01 08:26:00
6:30 PM,60.8,57.2,88,29.86,3.1,South,23.0,-,N/A,,Overcast,190,2013-07-01 08:30:00
6:34 PM,60.8,57.2,88,29.86,-9999.0,South,21.9,35.7,N/A,,Overcast,190,2013-07-01 08:34:00
7:00 PM,60.8,59.0,94,29.86,3.1,South,21.9,33.4,N/A,,Overcast,180,2013-07-01 09:00:00
7:30 PM,60.8,59.0,94,29.86,-9999.0,South,21.9,-,N/A,,Overcast,180,2013-07-01 09:30:00
7:35 PM,60.8,59.0,94,29.86,3.7,South,18.4,29.9,N/A,,Overcast,180,2013-07-01 09:35:00
7:46 PM,60.8,59.0,94,29.86,5.0,South,19.6,-,N/A,,Overcast,180,2013-07-01 09:46:00
7:56 PM,60.8,59.0,94,29.86,6.2,South,18.4,31.1,N/A,,Overcast,190,2013-07-01 09:56:00
8:00 PM,60.8,59.0,94,29.86,6.2,South,19.6,31.1,N/A,,Overcast,190,2013-07-01 10:00:00
8:23 PM,62.6,59.0,88,29.86,3.7,South,20.7,-,N/A,,Overcast,190,2013-07-01 10:23:00
8:30 PM,62.6,59.0,88,29.86,3.7,South,19.6,-,N/A,,Overcast,190,2013-07-01 10:30:00
8:44 PM,62.6,59.0,88,29.86,3.1,South,17.3,28.8,N/A,,Overcast,190,2013-07-01 10:44:00
9:00 PM,62,59,87,29.88,1,South,21.9,,,,Overcast,190,2013-07-01 11:00:00
9:00 PM,62.6,59.0,88,29.86,1.3,South,21.9,33.4,N/A,,Overcast,190,2013-07-01 11:00:00
9:30 PM,62.6,59.0,88,29.86,1.1,South,23.0,35.7,N/A,,Overcast,180,2013-07-01 11:30:00
10:00 PM,62.6,60.8,94,29.86,3.7,South,20.7,-,N/A,,Overcast,190,2013-07-01 12:00:00
10:03 PM,62.6,60.8,94,29.86,4.3,South,20.7,32.2,N/A,,Overcast,190,2013-07-01 12:03:00
10:12 PM,62.6,59.0,88,29.86,5.0,South,21.9,36.8,N/A,,Overcast,190,2013-07-01 12:12:00
10:26 PM,62.6,60.8,94,29.86,3.7,South,23.0,-,N/A,,Overcast,180,2013-07-01 12:26:00
10:29 PM,62.6,60.8,94,29.86,1.8,South,23.0,35.7,N/A,,Overcast,180,2013-07-01 12:29:00
10:30 PM,62.6,59.0,88,29.86,1.3,South,23.0,35.7,N/A,,Overcast,180,2013-07-01 12:30:00
10:57 PM,62.6,59.0,88,29.86,6.2,South,25.3,39.1,N/A,,Overcast,180,2013-07-01 12:57:00
11:02 PM,62.6,59.0,88,29.86,6.2,South,24.2,35.7,N/A,,Overcast,180,2013-07-01 13:02:00
11:16 PM,62.6,59.0,88,29.86,-9999.0,South,20.7,32.2,N/A,,Overcast,180,2013-07-01 13:16:00
11:22 PM,62.6,60.8,94,29.86,1.7,South,19.6,33.4,N/A,,Overcast,180,2013-07-01 13:22:00
11:30 PM,62.6,59.0,88,29.86,4.3,South,23.0,-,N/A,,Overcast,180,2013-07-01 13:30:00
11:33 PM,62.6,59.0,88,29.86,3.7,South,21.9,-,N/A,,Overcast,180,2013-07-01 13:33:00
11:45 PM,62.6,60.8,94,29.86,1.6,South,20.7,33.4,N/A,,Overcast,180,2013-07-01 13:45:00